    Observer details:
    046 Klet.  Observers J. Ticha, M. Tichy.   0.57-m f/5.2 reflector + CCD.
    118 Modra.  Observers A. Galad, L. Kornos.  0.6-m f/5.5 reflector + CCD.
    151 Eschenberg Observatory, Winterthur.  Observer M. Griesser.  0.40-m f/5.8
        Hypergraph + CCD.
    300 Bisei Spaceguard Center--BATTeRS.  Observers A. Asami, D. J. Asher,
        S. Hashimoto, S. Isobe, S. Nakano, Y. Oshima, J. Terazono, T. Urata,
        M. Yoshikawa.  0.50-m f/2.0 reflector + CCD.
    333 Desert Eagle Observatory.  Observer W. K. Yeung.  0.45-m reflector + CCD.
    474 Mount John Observatory, Lake Tekapo.  Observer A. C. Gilmore.
        1.0-m f/7.7 reflector + CCD.
    557 Ondrejov.  Observer P. Kusnirak.  0.65-m f/3.6 reflector + CCD.
    587 Sormano.  Observers F. Manca, A. Testa.  0.5-m reflector + CCD.
    595 Farra d'Isonzo.  Observers G. Lombardi, E. Pettarin.  0.40-m f/4.5
        reflector + CCD.
    649 Powell Observatory, Louisburg.  Observers K. Smalley, D. Trentman.
        0.75-m Newtonian + CCD.
    696 Whipple Observatory, Mt. Hopkins.  Observer T. B. Spahr.  1.2-m reflector
        + CCD.
    704 Lincoln Laboratory ETS, New Mexico.  Observers M. Blythe, F. Shelly,
        M. Bezpalko, R. Huber, L. Manguso, S. Adams, J. Piscitelli.  Measurers
        J. Stuart, R. Sayer, J. B. Evans, H. Viggh.  1.0-m f/2.15 reflector + CCD.
    844 Los Molinos.  Observer F. Artigue.  0.35-m f/6.4 reflector + CCD.
    854 Sabino Canyon Observatory, Tucson.  Observer J. E. McGaha.  0.30-m f/6.1
        Schmidt-Cassegrain + CCD.
    946 Ametlla de Mar.  Observer J. Nomen.  0.40-m f/2.0 Schmidt + CCD.
    
    Orbital elements:
    2001 TW1
    Epoch 2001 Sept. 28.0 TT = JDT 2452180.5                Marsden
    M  76.33245              (2000.0)            P               Q
    n   1.13278108     Peri.  208.77205     -0.58891824     +0.77185747
    a   0.9113924      Node    27.41107     -0.60533299     -0.22483132
    e   0.5261097      Incl.   31.36338     -0.53548789     -0.59471583
    P   0.87           H   19.0           G   0.15
    From 83 observations 2001 Oct. 9-13.
    
    Ephemeris:
    2001 TW1                 a,e,i = 0.91, 0.53, 31                  q = 0.4319
    Date    TT    R. A. (2000) Decl.     Delta      r     Elong.  Phase     V
    2001 10 08    03 48.49   -19 43.1    0.167    1.114   130.1    43.3    17.0
    2001 10 13    02 34.12   -12 51.4    0.168    1.148   151.2    24.8    16.6
    2001 10 18    01 31.14   -05 29.8    0.188    1.179   164.9    12.7    16.5
    2001 10 23    00 45.38   +00 28.6    0.224    1.209   160.6    15.9    17.0
    2001 10 28    00 14.38   +04 46.1    0.270    1.236   150.4    23.4    17.7
    2001 11 02    23 53.86   +07 48.3    0.322    1.260   141.4    29.4    18.3
    2001 11 07    23 40.48   +10 01.3    0.378    1.283   133.9    33.9    18.8
    2001 11 12    23 32.02   +11 43.0    0.437    1.303   127.4    37.1    19.3
    2001 11 17    23 27.08   +13 05.1    0.498    1.321   121.8    39.5    19.7
    2001 11 22    23 24.72   +14 14.7    0.560    1.337   116.7    41.3    20.0
    2001 11 27    23 24.31   +15 16.5    0.623    1.351   112.1    42.6    20.3
    2001 12 02    23 25.39   +16 13.3    0.685    1.362   107.9    43.5    20.5
    2001 12 07    23 27.65   +17 07.0    0.747    1.372   103.9    44.2    20.8
    2001 12 12    23 30.89   +17 59.0    0.809    1.380   100.1    44.6    20.9
    2001 12 17    23 34.96   +18 50.2    0.869    1.386    96.6    44.9    21.1
    2001 12 22    23 39.72   +19 41.5    0.928    1.389    93.1    45.0    21.3
    2001 12 27    23 45.08   +20 33.1    0.986    1.391    89.9    45.0    21.4
    2002 01 01    23 50.97   +21 25.4    1.041    1.390    86.7    44.9    21.5
    2002 01 06    23 57.33   +22 18.6    1.094    1.388    83.6    44.8    21.6
    2002 01 11    00 04.13   +23 12.7    1.145    1.384    80.7    44.5    21.7
    2002 01 16    00 11.36   +24 07.9    1.193    1.377    77.8    44.3    21.8
    2002 01 21    00 19.00   +25 04.4    1.238    1.369    75.1    44.0    21.8
    2002 01 26    00 27.01   +26 02.0    1.279    1.358    72.4    43.7    21.9
    2002 01 31    00 35.41   +27 00.6    1.317    1.346    69.8    43.4    21.9
    2002 02 05    00 44.20   +28 00.2    1.351    1.331    67.3    43.1    21.9
    
    Brian G. Marsden             (C) Copyright 2001 MPC           M.P.E.C. 2001-T44
    

    Read MPEC 2001-T43 Read MPEC 2001-T45


    MPEC number:

    Enter an MPEC number in one of the following forms:

    • 1997-B01 (the full form)
    • J97B01 (the packed version of the full form)
    • B01 (the abbreviated form)